AirNav   Pilot Hours Calculator
 
 1301 users online  

KUYF Madison County Airport
London, Ohio, USA

GOING TO LONDON?


FAA INFORMATION EFFECTIVE 26 JANUARY 2023

Location

FAA Identifier: UYF
Lat/Long: 39-55-57.8000N 083-27-43.2000W
39-55.963333N 083-27.720000W
39.9327222,-83.4620000
(estimated)
Elevation: 1081.6 ft. / 329.7 m (surveyed)
Variation: 06W (2000)
From city: 3 miles N of LONDON, OH
Time zone: UTC -5 (UTC -4 during Daylight Saving Time)
Zip code: 43140

Airport Operations

Airport use: Open to the public
Control tower: no
ARTCC: INDIANAPOLIS CENTER
FSS: DAYTON FLIGHT SERVICE STATION
NOTAMs facility: DAY (NOTAM-D service available)
Attendance: MON-FRI 0800-1600, ALL SAT-SUN 0900-1700
Wind indicator: lighted
Segmented circle: no
Lights: ACTVT REIL RWY 09 & 27; MIRL RWY 09/27 - CTAF. PAPI RWY 09 & 27 OPR CONSLY.
Beacon: white-green (lighted land airport)
Operates sunset to sunrise.

Airport Communications

CTAF/UNICOM: 123.0
WX AWOS-3PT: 120.85 (740-852-2844)
COLUMBUS APPROACH: 118.85
COLUMBUS DEPARTURE: 118.85
CLASS C: 118.85
IC: 118.85
WX AWOS-3 at TZR (15 nm E): 135.925 (614-878-1722)
WX AWOS-3 at I74 (18 nm NW): 118.325 (937-484-5863)
WX AWOS-3 at MRT (18 nm N): 119.275 (937-644-2967)
WX AWOS-3PT at SGH (18 nm W): 134.975 (937-324-4532)
WX ASOS at OSU (20 nm NE): 121.35 (614-451-2465)

Nearby radio navigation aids

VOR radial/distance  VOR name  Freq  Var
XUBr322/(33.0)YELLOW BUD VOR112.5005W
MXQr031/34.0MIDWEST VOR/DME112.9004W
RODr134/34.1ROSEWOOD VORTAC117.5005W

 
NDB name  Hdg/Dist  Freq  Var  ID
BOUTN305/13.723005WBU -... ..-
FULER240/14.851505WOS --- ...
COURT HOUSE357/20.241406WCSS -.-. ... ...

Airport Services

Fuel available: 100LL JET-A
100LL:FUEL AVBL H24 SELF SER.
Parking: hangars and tiedowns
Airframe service: MINOR
Powerplant service: MINOR
Bottled oxygen: NONE
Bulk oxygen: NONE

Runway Information

Runway 9/27

Dimensions: 4001 x 75 ft. / 1220 x 23 m
Surface: asphalt, in fair condition
Weight bearing capacity: 
Single wheel: 30.0
Double wheel: 40.0
Runway edge lights: medium intensity
Runway edge markings: FADED.
RUNWAY 9  RUNWAY 27
Latitude: 39-55.943358N39-55.982148N
Longitude: 083-28.146760W083-27.292362W
Elevation: 1081.5 ft.1051.0 ft.
Traffic pattern: leftleft
Runway heading: 093 magnetic, 087 true273 magnetic, 267 true
Markings: nonprecision, in poor conditionnonprecision, in poor condition
Visual slope indicator: 4-light PAPI on left (3.00 degrees glide path)4-light PAPI on left (3.00 degrees glide path)
Runway end identifier lights: yesyes
Touchdown point: yes, no lightsyes, no lights
Obstructions: 10 ft. crops, 201 ft. from runway, 200 ft. right of centerline
+10 FT CROPS, 0-200 FT DIST, 200 FT R; +8-10 FT CROPS, 65-200 FT DIST, 200 FT L.
5 ft. crops, 201 ft. from runway, 194 ft. left of centerline
+5-7 FT CROPS, 0-200 FT DIST, 194 FT L; +3-12 FT BRUSH/TREES, 60-200 FT DIST, 175 FT R.

Airport Ownership and Management from official FAA records

Ownership: Publicly-owned
Owner: MADISON COUNTY AIRPORT AUTH
1281 US HIGHWAY 40 SW
LONDON, OH 43140-9213
Phone 740-852-5040
Manager: JOHN DUHL
1281 US HIGHWAY 40 SW
LONDON, OH 43140-9213
Phone 740-852-5040
AIRPORT@CO.MADISON.OH.US.

Airport Operational Statistics

Aircraft based on the field: 33
Single engine airplanes: 32
Helicopters: 1
    
Aircraft operations: avg 113/day *
51% local general aviation
44% transient general aviation
5% military
<1% air taxi
* for 12-month period ending 10 September 2020

Additional Remarks

FOR CD CTC COLUMBUS APCH AT 614-338-8537.

Instrument Procedures

NOTE: All procedures below are presented as PDF files. If you need a reader for these files, you should download the free Adobe Reader.

NOT FOR NAVIGATION. Please procure official charts for flight.
FAA instrument procedures published for use from 26 January 2023 at 0901Z to 23 February 2023 at 0900z.

 
IAPs - Instrument Approach Procedures
RNAV (GPS) RWY 09   download
RNAV (GPS) RWY 27   download
NOTE: Special Alternate Minimums apply   download (168KB)
NOTE: Special Take-Off Minimums/Departure Procedures apply   download (545KB)

Other nearby airports with instrument procedures:

KTZR - Bolton Field Airport (15 nm E)
I74 - Grimes Field Airport (18 nm NW)
KMRT - Union County Airport (18 nm N)
KSGH - Springfield/Beckley Municipal Airport (18 nm W)
KOSU - Ohio State University Airport (20 nm NE)
 
Loc | Ops | Rwys | IFR | FBO | Links
Com | Nav | Svcs | Stats | Notes
Area around KUYF (Madison County Airport)
 
Road maps at: MapQuest Bing Google
 
Aerial photo
WARNING: Photo may not be current or correct
Aerial photo of KUYF (Madison County Airport)
Do you have a better or more recent aerial photo of Madison County Airport that you would like to share? If so, please send us your photo.

 
Sectional chart

 
Airport distance calculator
Flying to Madison County Airport? Find the distance to fly.

From to KUYF

Sunrise and sunset
Times for 28-Jan-2023
 Local
(UTC-5)
 Zulu
(UTC)
Morning civil twilight07:1812:18
Sunrise07:4712:47
Sunset17:4722:47
Evening civil twilight18:1623:16

Current date and time
Zulu (UTC)  28-Jan-2023 18:16:07
Local (UTC-5)  28-Jan-2023 13:16:07
 
METAR
KUYF 281755Z AUTO 22003KT 10SM OVC120 03/M02 A3022 RMK AO2
KTZR 
15nm E 
281745Z 20006KT 10SM CLR 07/01 A3023
KSGH 
18nm SW 
281756Z AUTO 18004KT 10SM SCT080 BKN110 06/01 A3022 RMK AO2 SLP242 T00560006 10056 21006 58006
KI74 
18nm NW 
281755Z AUTO 18005KT 10SM BKN110 04/00 A3022 RMK AO2
KMRT 
18nm N 
281755Z AUTO 21005KT 10SM CLR 03/M01 A3022 RMK AO2 T00301010 10031 21015
KOSU 
20nm NE 
281753Z 22007KT 10SM CLR 08/01 A3022 RMK AO2 SLP237 T00830006 10083 21006 58009
TAF
KLCK 
26nm E 
281134Z 2812/2912 23005KT P6SM BKN250 FM281800 20007KT P6SM OVC090 FM290800 20011KT P6SM VCSH OVC035 FM291100 20012KT 5SM -RA BR OVC025
KCMH 
27nm E 
281743Z 2818/2918 21007KT P6SM OVC180 FM282200 16005KT P6SM SCT200 FM290600 18008KT P6SM BKN070 FM290800 20011KT P6SM -SHRA BKN025 OVC050 FM291300 20010KT P6SM OVC008 FM291500 20009KT P6SM OVC006
KFFO 
27nm W 
281100Z 2811/2917 23009KT 9999 FEW040 SCT200 510101 QNH3013INS BECMG 2815/2816 19012KT 9999 SCT040 BKN150 QNH3012INS BECMG 2900/2901 18012G18KT 9999 BKN040 BKN150 OVC200 QNH3005INS BECMG 2907/2909 20012KT 4800 -RA BKN015 650703 621005 QNH3008INS BECMG 2908/2910 20012KT 4800 -RA BKN010 OVC015 620802 540106 QNH3000INS BECMG 2916/2917 22009KT 4800 -RA BR BKN007 OVC010 510103 QNH3003INS TX08/2820Z TN00/2812Z
NOTAMs
Click for the latest NOTAMs
NOTAMs are issued by the DoD/FAA and will open in a separate window not controlled by AirNav.

 

 
 

FBO, Fuel Providers, and Aircraft Ground Support

  
 Business Name 
 
 Contact 
 
 Services / Description 
 
Fuel Prices
 
Comments
  
Madison County Airport 740-852-5040
[web site]
[email]
Airport management, Aviation fuel, Aircraft parking (ramp or tiedown), Hangar leasing / sales, ...

More info about Madison County Airport
EPIC
100LL Jet A
AS $6.25 $5.35 
 Updated 26-Jan-2023
 
   write
AS=Assisted/Self Service
Update Fuel Prices
 

Would you like to see your business listed on this page?

 If your business provides an interesting product or service to pilots, flight crews, aircraft, or users of the Madison County Airport, you should consider listing it here.  To start the listing process, click on the button below
 
Add a business
 

Other Pages about Madison County Airport

co.madison.oh.us/airport
 
Update a link
 
Copyright © AirNav, LLC. All rights reserved. Privacy Policy  Contact